Location: Kelshall
(52.0000°N, 0.0500°W)
Time: 02:06:56
(UTC+00:00)

Cosmos 1975 Rocket - Pass Details

Date: 18 September 2020
Orbit: 603 x 634 km, 82.5° (Epoch: 30 October)

Event Time Altitude Azimuth Distance (km) Brightness Sun altitude
Rises 19:04:08 0° 347° (NNW) 2,888 6.9 -9.5°
Reaches altitude 10° 19:06:22 10° 346° (NNW) 1,974 6.1 -9.8°
Maximum altitude 19:10:43 72° 262° (W) 642 3.3 -10.5°
Drops below altitude 10° 19:15:00 10° 179° (S) 1,948 5.4 -11.1°
Sets 19:17:12 0° 177° (S) 2,845 6.3 -11.4°
